Overview Statistics Trail Chart Weather Telemetry Raw packets
 

This is the latest recevied weather packets stored in our database for station/object SV9TNF-51. If no packets are shown the sender has not sent any weather packets the latest 10 day(s).

<< 54 55 56 57 58 59 60 >>
Time Temp. Humidity Pressure Rain* Wind** Luminosity Snow
1788306221 25° C 54% 1011.5 hPa 0 mm 0 m/s - -
1788305910 25° C 55% 1011.5 hPa 0 mm 1.34 m/s, 82° - -
1788305610 24.44° C 57% 1011.5 hPa 0 mm 1.79 m/s, 109° - -
1788305309 25° C 58% 1011.5 hPa 0 mm 1.34 m/s, 141° - -
1788305009 24.44° C 56% 1011.5 hPa 0 mm 1.34 m/s, 127° - -
1788304709 24.44° C 55% 1011.5 hPa 0 mm 1.79 m/s, 130° - -
1788304409 24.44° C 55% 1011.5 hPa 0 mm 0.89 m/s, 128° - -
1788304109 24.44° C 55% 1011.5 hPa 0 mm 0.89 m/s, 88° - -
1788303809 24.44° C 55% 1011.5 hPa 0 mm 1.34 m/s, 130° - -
1788303509 24.44° C 55% 1011.5 hPa 0 mm 0.45 m/s, 125° - -
1788303209 25° C 55% 1011.5 hPa 0 mm 0.45 m/s, 125° - -
1788302909 25° C 54% 1011.5 hPa 0 mm 0 m/s - -
1788302609 25° C 54% 1011.5 hPa 0 mm 1.34 m/s, 117° - -
1788302308 25.56° C 53% 1011.5 hPa 0 mm 1.79 m/s, 127° - -
1788302008 25.56° C 51% 1011.5 hPa 0 mm 1.34 m/s, 125° - -
1788301708 25.56° C 51% 1011.5 hPa 0 mm 2.68 m/s, 129° - -
1788301408 25.56° C 54% 1011.5 hPa 0 mm 0 m/s - -
1788301108 25.56° C 54% 1011.5 hPa 0 mm 1.34 m/s, 127° - -
1788300808 25.56° C 53% 1011.5 hPa 0 mm 0 m/s - -
1788300508 25.56° C 57% 1011.5 hPa 0 mm 0 m/s - -
1788300207 25.56° C 57% 1011.5 hPa 0 mm 0 m/s - -
1788299907 25.56° C 58% 1011.5 hPa 0 mm 0.45 m/s, 131° - -
1788299607 25.56° C 58% 1011.5 hPa 0 mm 0 m/s - -
1788299307 25.56° C 57% 1011.5 hPa 0 mm 1.79 m/s, 99° - -
1788299008 25.56° C 59% 1011.5 hPa 0 mm 2.68 m/s, 114° - -

* Rain latest hour (hover to see other rain measurements)
** Current wind speed in m/s (hover to see current wind gust speed)